Weather History for Edenton, NC

Change the Weather History Date:

Sunday, November 3, 2013

  Actual Average Record
Temperature  
Mean Temperature 52 °F -  
Max Temperature 62 °F 71 °F 82 °F (1974)
Min Temperature 42 °F 50 °F 30 °F (1954)
Degree Days  
Heating Degree Days 13    
Growing Degree Days 2 (Base 50)    
Moisture  
Dew Point 43 °F    
Average Humidity 69    
Maximum Humidity 89    
Minimum Humidity 42    
Precipitation  
Precipitation 0.00 in - - ()
Sea Level Pressure  
Sea Level Pressure 30.12 in    
Wind  
Wind Speed 8 mph (North)    
Max Wind Speed 17 mph    
Max Gust Speed 26 mph    
Visibility 10 miles    
Events Rain    
Averages and records for this station are not official NWS values.
T = Trace of Precipitation, MM = Missing Value Source: NWS Daily Summary

Daily Weather History Graph

Daily Weather History Graph

Search for Another Location

Airport:

Trip Planner

Search our weather history database for the weather conditions in past years. The results will help you decide how hot, cold, wet, or windy it might be!

Date:

Astronomy

Nov. 03, 2013 Rise Set
Actual Time 6:30 AM EST 5:08 PM EST
Civil Twilight 6:04 AM EST 5:34 PM EST
Nautical Twilight 5:33 AM EST 6:05 PM EST
Astronomical Twilight 5:03 AM EST 6:35 PM EST
Moon 6:32 AM EST (11/3) 5:22 PM EST (11/3)
Length of Visible Light 11h 30m
Length of Day
10h 37m
New Moon, 0% of the Moon is Illuminated
Nov 3
New Moon
Nov 10
First Quarter
Nov 17
Full
Nov 25
Last Quarter
Dec 2
New

Hourly Weather History & Observations

Time (EST) Temp. Windchill Dew Point Humidity Pressure Visibility Wind Dir Wind Speed Gust Speed Precip Events Conditions
12:15 AM 58.1 °F - 50.5 °F 76% 29.87 in 10.0 mi NNE 8.1 mph - N/A   Unknown
12:35 AM 58.1 °F - 50.0 °F 74% 29.89 in 10.0 mi North 9.2 mph - N/A   Unknown
12:55 AM 57.2 °F - 50.4 °F 78% 29.90 in 10.0 mi North 8.1 mph - N/A Rain Light Rain
1:15 AM 56.3 °F - 48.7 °F 76% 29.91 in 10.0 mi North 10.4 mph - N/A Rain Light Rain
1:35 AM 55.4 °F - 50.9 °F 85% 29.92 in 10.0 mi North 6.9 mph - N/A   Light Drizzle
1:55 AM 55.4 °F - 49.3 °F 80% 29.92 in 10.0 mi North 8.1 mph - N/A Rain Light Rain
1:15 AM 55.0 °F - 49.5 °F 81% 29.92 in 10.0 mi North 6.9 mph - N/A   Unknown
1:35 AM 53.2 °F - 48.7 °F 85% 29.92 in 10.0 mi North 5.8 mph - N/A   Unknown
1:55 AM 52.9 °F - 47.5 °F 82% 29.92 in 10.0 mi North 5.8 mph - N/A   Unknown
2:15 AM 51.6 °F - 47.5 °F 86% 29.93 in 10.0 mi North 5.8 mph - N/A   Unknown
2:35 AM 50.9 °F - 47.3 °F 87% 29.93 in 10.0 mi North 5.8 mph - N/A   Unknown
2:55 AM 50.9 °F - 46.0 °F 83% 29.94 in 10.0 mi North 5.8 mph - N/A   Unknown
3:15 AM 50.5 °F - 45.0 °F 81% 29.94 in 10.0 mi North 5.8 mph - N/A   Unknown
3:35 AM 49.3 °F - 45.1 °F 86% 29.95 in 10.0 mi North 4.6 mph - N/A   Unknown
3:55 AM 49.1 °F - 45.1 °F 86% 29.96 in 10.0 mi North 4.6 mph - N/A   Unknown
4:15 AM 49.1 °F - 44.8 °F 85% 29.97 in 10.0 mi NNW 4.6 mph - N/A   Unknown
4:35 AM 49.3 °F - 44.8 °F 84% 29.98 in 10.0 mi NNW 5.8 mph - N/A   Unknown
4:55 AM 47.7 °F - 44.2 °F 88% 29.99 in 10.0 mi NNW 5.8 mph - N/A   Unknown
5:15 AM 48.4 °F - 44.2 °F 86% 30.00 in 10.0 mi NNW 5.8 mph - N/A   Unknown
5:35 AM 47.7 °F - 43.9 °F 87% 30.01 in 10.0 mi NNW 5.8 mph - N/A   Unknown
5:55 AM 49.1 °F - 44.2 °F 83% 30.02 in 10.0 mi NNW 5.8 mph - N/A   Unknown
6:15 AM 48.2 °F - 43.9 °F 85% 30.02 in 10.0 mi NNW 4.6 mph - N/A   Unknown
6:35 AM 47.3 °F - 43.7 °F 87% 30.04 in 10.0 mi NW 5.8 mph - N/A   Unknown
6:55 AM 47.3 °F - 43.9 °F 88% 30.05 in 10.0 mi NNW 4.6 mph - N/A   Unknown
7:15 AM 47.8 °F - 44.6 °F 89% 30.07 in 10.0 mi NNW 5.8 mph - N/A   Unknown
7:35 AM 50.2 °F - 44.6 °F 81% 30.08 in 10.0 mi NNW 5.8 mph - N/A   Unknown
7:55 AM 51.6 °F - 43.5 °F 74% 30.09 in 10.0 mi NNW 9.2 mph 20.7 mph N/A   Unknown
8:15 AM 52.7 °F - 43.2 °F 70% 30.10 in 10.0 mi NNW 10.4 mph - N/A   Unknown
8:35 AM 53.8 °F - 43.7 °F 69% 30.11 in 10.0 mi North 11.5 mph - N/A   Unknown
8:55 AM 54.9 °F - 43.0 °F 64% 30.12 in 10.0 mi North 13.8 mph - N/A   Unknown
9:15 AM 55.4 °F - 42.3 °F 61% 30.12 in 10.0 mi North 15.0 mph 20.7 mph N/A   Unknown
9:35 AM 56.3 °F - 41.7 °F 58% 30.13 in 10.0 mi North 11.5 mph 18.4 mph N/A   Unknown
9:55 AM 57.2 °F - 41.9 °F 57% 30.13 in 10.0 mi North 13.8 mph 18.4 mph N/A   Unknown
10:15 AM 57.9 °F - 41.4 °F 54% 30.14 in 10.0 mi North 15.0 mph - N/A   Unknown
10:35 AM 58.5 °F - 41.5 °F 53% 30.15 in 10.0 mi North 10.4 mph 21.9 mph N/A   Unknown
10:55 AM 59.4 °F - 41.2 °F 51% 30.16 in 10.0 mi NNW 15.0 mph 19.6 mph N/A   Unknown
11:15 AM 59.9 °F - 40.1 °F 48% 30.15 in 10.0 mi North 16.1 mph 26.5 mph N/A   Unknown
11:35 AM 60.3 °F - 40.1 °F 47% 30.15 in 10.0 mi North 17.3 mph 20.7 mph N/A   Unknown
11:55 AM 60.8 °F - 40.5 °F 47% 30.15 in 10.0 mi NNW 13.8 mph - N/A   Unknown
12:15 PM 61.0 °F - 40.5 °F 47% 30.14 in 10.0 mi North 12.7 mph 20.7 mph N/A   Unknown
12:35 PM 61.7 °F - 41.4 °F 47% 30.14 in 10.0 mi NNW 13.8 mph 17.3 mph N/A   Unknown
12:55 PM 61.5 °F - 41.4 °F 48% 30.13 in 10.0 mi North 12.7 mph - N/A   Unknown
1:15 PM 61.7 °F - 41.7 °F 48% 30.14 in 10.0 mi North 11.5 mph 21.9 mph N/A   Unknown
1:35 PM 61.9 °F - 40.6 °F 46% 30.15 in 10.0 mi North 12.7 mph 21.9 mph N/A   Unknown
1:55 PM 62.1 °F - 41.0 °F 46% 30.15 in 10.0 mi North 15.0 mph 18.4 mph N/A   Unknown
2:15 PM 62.1 °F - 39.9 °F 44% 30.15 in 10.0 mi North 10.4 mph 17.3 mph N/A   Unknown
2:35 PM 59.7 °F - 39.7 °F 48% 30.16 in 10.0 mi North 9.2 mph - N/A   Unknown
2:55 PM 61.7 °F - 40.1 °F 45% 30.17 in 10.0 mi NNE 8.1 mph 17.3 mph N/A   Unknown
3:15 PM 61.3 °F - 39.2 °F 44% 30.18 in 10.0 mi North 12.7 mph - N/A   Unknown
3:35 PM 61.3 °F - 38.1 °F 42% 30.18 in 10.0 mi North 13.8 mph - N/A   Unknown
3:55 PM 60.4 °F - 39.0 °F 45% 30.18 in 10.0 mi North 12.7 mph 17.3 mph N/A   Unknown
4:15 PM 59.4 °F - 39.6 °F 48% 30.20 in 10.0 mi North 6.9 mph - N/A   Unknown
4:35 PM 58.1 °F - 39.9 °F 51% 30.20 in 10.0 mi North 8.1 mph - N/A   Unknown
4:55 PM 56.8 °F - 39.6 °F 52% 30.21 in 10.0 mi North 6.9 mph - N/A   Unknown
5:15 PM 54.7 °F - 40.5 °F 59% 30.23 in 10.0 mi North 3.5 mph - N/A   Unknown
5:35 PM 53.6 °F - 41.5 °F 64% 30.24 in 10.0 mi North 3.5 mph - N/A   Unknown
5:55 PM 52.2 °F - 40.6 °F 65% 30.25 in 10.0 mi North 4.6 mph - N/A   Unknown
6:15 PM 51.1 °F - 40.5 °F 67% 30.25 in 10.0 mi North 5.8 mph - N/A   Unknown
6:35 PM 51.4 °F - 39.7 °F 64% 30.27 in 10.0 mi NNE 4.6 mph - N/A   Unknown
6:55 PM 50.0 °F - 39.7 °F 68% 30.28 in 10.0 mi ENE 5.8 mph - N/A   Unknown
7:15 PM 49.5 °F - 40.5 °F 71% 30.29 in 10.0 mi Calm Calm - N/A   Unknown
7:35 PM 49.1 °F - 40.3 °F 72% 30.30 in 10.0 mi North 3.5 mph - N/A   Unknown
7:55 PM 48.6 °F - 39.9 °F 72% 30.31 in 10.0 mi NNE 3.5 mph - N/A   Unknown
8:15 PM 47.3 °F - 39.7 °F 75% 30.32 in 10.0 mi North 3.5 mph - N/A   Unknown
8:35 PM 45.5 °F - 40.8 °F 84% 30.33 in 10.0 mi Calm Calm - N/A   Unknown
8:55 PM 45.0 °F 43.5 °F 40.3 °F 84% 30.34 in 10.0 mi North 3.5 mph - N/A   Unknown
9:15 PM 45.5 °F 44.2 °F 39.4 °F 79% 30.35 in 10.0 mi North 3.5 mph - N/A   Unknown
9:35 PM 42.3 °F - 38.8 °F 88% 30.35 in 10.0 mi Calm Calm - N/A   Unknown
9:55 PM 44.2 °F - 39.6 °F 84% 30.35 in 10.0 mi Calm Calm - N/A   Unknown
10:15 PM 42.8 °F 41.1 °F 39.4 °F 88% 30.35 in 10.0 mi NNE 3.5 mph - N/A   Unknown
10:35 PM 43.5 °F - 39.4 °F 85% 30.36 in 10.0 mi Calm Calm - N/A   Unknown
10:55 PM 43.0 °F 41.3 °F 39.2 °F 86% 30.36 in 10.0 mi NNE 3.5 mph - N/A   Unknown